QPF
0.10 0.03 0.09 0.17 0.19 0.04 0.01 0.01 0.01 0.00 0.00 0.00 0.00 0.00 0.00 0.00 0.00 0.00 0.00 0.00 0.00 0.00 0.00 0.00 0.00 0.00 0.00 0.00 0.00 0.00 0.03 0.02 0.01 0.01 0.01 0.00 0.00 0.00 0.00 0.00 0.00 0.00 0.00 0.00 0.00 0.00 0.00 0.00 0.01
0.06 0.06 0.00 0.02 0.02 0.00 0.04 0.01 0.00 0.00 0.00 0.00 0.00 0.00 0.00 0.00 0.00 0.00 0.00 0.00 0.00 0.00 0.00 0.00 0.00 0.00 0.00 0.01 0.01 0.00 0.02 0.01 0.00 0.00 0.00 0.00 0.00 0.00 0.00 0.00 0.00 0.00 0.00 0.00 0.00 0.00 0.00 0.00 0.00
0.02 0.02 0.01 0.03 0.01 0.00 0.03 0.01 0.01 0.05 0.01 0.00 0.00 0.00 0.00 0.00 0.00 0.00 0.00 0.00 0.00 0.00 0.00 0.00 0.00 0.00 0.00 0.00 0.00 0.00 0.01 0.01 0.00 0.00 0.00 0.00 0.00 0.00 0.00 0.00 0.00 0.00 0.00 0.00 0.00 0.00 0.00 0.00 0.00
0.02 0.01 0.01 0.04 0.00 0.00 0.00 0.00 0.00 0.00 0.00 0.00 0.00 0.00 0.00 0.00 0.00 0.00 0.00 0.00 0.00 0.00 0.00 0.00 0.00 0.00 0.00 0.00 0.00 0.00 0.00 0.00 0.00 0.00 0.00 0.00 0.00 0.00 0.00 0.00 0.00 0.00 0.00 0.00 0.00 0.00 0.00 0.00 0.00
0.03 0.00 0.00 0.01 0.00 0.00 0.00 0.00 0.00 0.00 0.00 0.00 0.00 0.00 0.00 0.00 0.00 0.00 0.00 0.00 0.00 0.00 0.00 0.00 0.01 0.00 0.00 0.01 0.02 0.03 0.00 0.00 0.00 0.00 0.00 0.00 0.00 0.00 0.00 0.00 0.00 0.00 0.00 0.00 0.00 0.00 0.00 0.00 0.00
0.00 0.00 0.01 0.01 0.00 0.00 0.00 0.00 0.00 0.00 0.00 0.00 0.00 0.00 0.00 0.00 0.00 0.00 0.00 0.00 0.00 0.00 0.00 0.00 0.01 0.01 0.00 0.01 0.01 0.00 0.00 0.00 0.00 0.00 0.00 0.00 0.00 0.00 0.00 0.00 0.00 0.00 0.00 0.00 0.00 0.00 0.00 0.00 0.00
0.00 0.00 0.00 0.00 0.00 0.00 0.00 0.00 0.00 0.00 0.00 0.00 0.00 0.00 0.00 0.00 0.00 0.00 0.00 0.00 0.00 0.00 0.00 0.00 0.00 0.00 0.00 0.00 0.00 0.00 0.00 0.00 0.00 0.00 0.00 0.00 0.00 0.00 0.00 0.00 0.00 0.00 0.00 0.00 0.00 0.00 0.00 0.00 0.00
0.02 0.00 0.00 0.00 0.00 0.00 0.00 0.00 0.00 0.00 0.00 0.00 0.00 0.00 0.00 0.00 0.00 0.00 0.00 0.00 0.00 0.00 0.00 0.00 0.00 0.00 0.00 0.00 0.00 0.00 0.00 0.00 0.00 0.00 0.00 0.00 0.00 0.00 0.00 0.00 0.00 0.00 0.00 0.00 0.00 0.00 0.00 0.00 0.00
0.02 0.01 0.00 0.00 0.00 0.00 0.00 0.00 0.00 0.00 0.00 0.00 0.00 0.00 0.00 0.00 0.00 0.00 0.00 0.00 0.00 0.00 0.00 0.00 0.00 0.00 0.00 0.00 0.00 0.00 0.00 0.00 0.00 0.00 0.00 0.00 0.00 0.00 0.00 0.00 0.00 0.00 0.00 0.00 0.00 0.00 0.00 0.00 0.00
0.01 0.00 0.00 0.00 0.00 0.00 0.00 0.00 0.00 0.00 0.00 0.00 0.00 0.00 0.00 0.00 0.00 0.00 0.00 0.00 0.00 0.00 0.00 0.00 0.00 0.00 0.00 0.00 0.00 0.00 0.00 0.00 0.00 0.00 0.00 0.00 0.00 0.00 0.00 0.00 0.00 0.00 0.00 0.00 0.00 0.00 0.00 0.00 0.00
0.13 0.03 0.00 0.00 0.00 0.00 0.00 0.00 0.00 0.00 0.00 0.00 0.00 0.00 0.00 0.00 0.00 0.00 0.00 0.00 0.00 0.00 0.00 0.00 0.00 0.00 0.00 0.00 0.00 0.00 0.00 0.00 0.00 0.00 0.00 0.00 0.00 0.00 0.00 0.00 0.00 0.00 0.00 0.00 0.00 0.00 0.00 0.00 0.00
0.15 0.01 0.00 0.00 0.00 0.00 0.00 0.00 0.00 0.00 0.00 0.00 0.00 0.00 0.00 0.00 0.00 0.00 0.00 0.00 0.00 0.00 0.00 0.00 0.00 0.00 0.00 0.00 0.00 0.00 0.00 0.00 0.00 0.00 0.00 0.00 0.00 0.00 0.00 0.00 0.00 0.00 0.00 0.00 0.00 0.00 0.00 0.00 0.00
0.17 0.02 0.00 0.00 0.01 0.00 0.00 0.00 0.00 0.00 0.00 0.00 0.00 0.00 0.00 0.00 0.00 0.00 0.00 0.00 0.00 0.00 0.00 0.00 0.00 0.00 0.00 0.00 0.00 0.00 0.00 0.00 0.00 0.00 0.00 0.00 0.00 0.00 0.00 0.00 0.00 0.00 0.00 0.00 0.00 0.00 0.00 0.00 0.00
0.08 0.01 0.01 0.03 0.00 0.00 0.00 0.00 0.00 0.00 0.00 0.00 0.00 0.00 0.00 0.00 0.00 0.00 0.00 0.00 0.00 0.00 0.00 0.00 0.00 0.00 0.00 0.00 0.00 0.00 0.00 0.00 0.00 0.00 0.00 0.00 0.00 0.00 0.00 0.00 0.00 0.00 0.00 0.00 0.00 0.00 0.00 0.00 0.00
0.01 0.01 0.05 0.01 0.00 0.01 0.02 0.00 0.00 0.00 0.00 0.00 0.00 0.00 0.00 0.00 0.00 0.00 0.00 0.00 0.00 0.00 0.00 0.00 0.00 0.00 0.00 0.00 0.00 0.00 0.00 0.00 0.00 0.00 0.00 0.00 0.00 0.00 0.00 0.00 0.00 0.00 0.00 0.00 0.00 0.00 0.00 0.00 0.00
0.00 0.00 0.02 0.01 0.01 0.00 0.00 0.00 0.00 0.00 0.00 0.00 0.00 0.00 0.00 0.00 0.00 0.00 0.00 0.00 0.00 0.00 0.00 0.00 0.00 0.00 0.00 0.00 0.00 0.00 0.00 0.00 0.00 0.00 0.00 0.00 0.00 0.00 0.00 0.00 0.00 0.00 0.00 0.00 0.00 0.00 0.00 0.00 0.00
0.00 0.01 0.00 0.00 0.01 0.00 0.00 0.00 0.00 0.00 0.00 0.00 0.00 0.00 0.00 0.00 0.00 0.00 0.00 0.00 0.00 0.00 0.00 0.00 0.00 0.00 0.00 0.00 0.00 0.00 0.00 0.00 0.00 0.00 0.00 0.00 0.00 0.00 0.00 0.00 0.00 0.00 0.00 0.00 0.00 0.00 0.00 0.00 0.00
0.00 0.00 0.00 0.00 0.00 0.00 0.00 0.01 0.00 0.00 0.00 0.00 0.00 0.00 0.00 0.00 0.00 0.00 0.00 0.00 0.00 0.00 0.00 0.00 0.00 0.00 0.00 0.00 0.00 0.00 0.00 0.00 0.00 0.00 0.00 0.00 0.00 0.00 0.00 0.00 0.00 0.00 0.00 0.00 0.00 0.00 0.00 0.00 0.00
0.00 0.00 0.00 0.00 0.00 0.00 0.00 0.00 0.00 0.00 0.00 0.00 0.00 0.00 0.00 0.00 0.00 0.00 0.00 0.00 0.00 0.00 0.00 0.00 0.00 0.00 0.00 0.00 0.00 0.00 0.00 0.00 0.00 0.00 0.00 0.00 0.00 0.00 0.00 0.00 0.00 0.00 0.00 0.00 0.00 0.00 0.00 0.00 0.00
0.00 0.00 0.00 0.00 0.00 0.00 0.00 0.00 0.00 0.00 0.00 0.00 0.00 0.00 0.00 0.00 0.00 0.00 0.00 0.00 0.00 0.00 0.00 0.00 0.00 0.00 0.00 0.00 0.00 0.00 0.00 0.00 0.00 0.00 0.00 0.00 0.00 0.00 0.00 0.00 0.00 0.00 0.00 0.00 0.00 0.00 0.00 0.00 0.00
0.00 0.00 0.00 0.00 0.00 0.00 0.00 0.00 0.00 0.00 0.00 0.00 0.01 0.06 0.03 0.00 0.00 0.00 0.00 0.00 0.00 0.00 0.00 0.00 0.00 0.00 0.00 0.00 0.00 0.00 0.00 0.00 0.00 0.00 0.00 0.00 0.00 0.00 0.00 0.00 0.00 0.00 0.00 0.00 0.00 0.00 0.00 0.00 0.00
0.00 0.00 0.00 0.00 0.00 0.00 0.00 0.00 0.00 0.00 0.00 0.00 0.03 0.06 0.05 0.01 0.00 0.00 0.00 0.00 0.00 0.00 0.00 0.00 0.00 0.00 0.00 0.00 0.00 0.00 0.00 0.00 0.00 0.00 0.00 0.00 0.00 0.00 0.00 0.00 0.00 0.00 0.00 0.00 0.00 0.00 0.00 0.00 0.00
0.00 0.00 0.00 0.00 0.00 0.00 0.00 0.00 0.00 0.00 0.00 0.00 0.01 0.05 0.02 0.02 0.00 0.00 0.00 0.01 0.02 0.00 0.00 0.00 0.00 0.00 0.00 0.00 0.00 0.00 0.00 0.00 0.00 0.00 0.00 0.00 0.00 0.00 0.00 0.00 0.00 0.00 0.00 0.00 0.00 0.00 0.00 0.00 0.00
0.00 0.00 0.00 0.00 0.00 0.00 0.00 0.00 0.00 0.00 0.00 0.00 0.00 0.04 0.05 0.17 0.13 0.06 0.01 0.00 0.02 0.01 0.00 0.00 0.00 0.00 0.00 0.00 0.00 0.00 0.00 0.00 0.00 0.00 0.00 0.00 0.00 0.00 0.00 0.00 0.00 0.00 0.00 0.00 0.00 0.00 0.00 0.00 0.00
0.00 0.00 0.00 0.00 0.00 0.00 0.00 0.00 0.00 0.00 0.01 0.01 0.04 0.08 0.06 0.13 0.08 0.05 0.02 0.00 0.00 0.00 0.01 0.00 0.00 0.00 0.00 0.00 0.00 0.00 0.00 0.00 0.00 0.00 0.00 0.00 0.00 0.00 0.00 0.00 0.00 0.00 0.00 0.00 0.00 0.00 0.00 0.00 0.00
0.00 0.00 0.00 0.00 0.00 0.00 0.00 0.00 0.02 0.04 0.06 0.05 0.01 0.01 0.00 0.00 0.00 0.00 0.00 0.00 0.00 0.00 0.05 0.02 0.01 0.01 0.01 0.00 0.00 0.00 0.00 0.00 0.00 0.00 0.00 0.00 0.00 0.00 0.00 0.00 0.00 0.00 0.00 0.00 0.00 0.00 0.00 0.00 0.00
0.00 0.00 0.00 0.00 0.00 0.00 0.01 0.03 0.08 0.04 0.01 0.00 0.00 0.00 0.00 0.00 0.00 0.00 0.00 0.00 0.00 0.00 0.01 0.04 0.13 0.04 0.01 0.01 0.04 0.02 0.00 0.00 0.00 0.00 0.00 0.00 0.00 0.00 0.00 0.00 0.00 0.00 0.00 0.00 0.00 0.00 0.00 0.00 0.00
0.00 0.00 0.00 0.00 0.00 0.00 0.01 0.01 0.02 0.01 0.00 0.00 0.00 0.00 0.00 0.00 0.00 0.00 0.00 0.00 0.00 0.00 0.00 0.01 0.04 0.01 0.05 0.08 0.04 0.01 0.00 0.00 0.00 0.00 0.00 0.00 0.00 0.00 0.00 0.00 0.00 0.00 0.00 0.00 0.00 0.00 0.00 0.00 0.00
0.00 0.00 0.00 0.00 0.00 0.00 0.00 0.00 0.03 0.02 0.01 0.01 0.00 0.00 0.00 0.00 0.00 0.00 0.00 0.00 0.00 0.00 0.00 0.00 0.01 0.03 0.04 0.07 0.11 0.02 0.00 0.00 0.00 0.00 0.00 0.00 0.00 0.00 0.00 0.00 0.00 0.00 0.00 0.00 0.00 0.00 0.00 0.00 0.00
0.00 0.00 0.00 0.00 0.00 0.00 0.00 0.00 0.00 0.00 0.00 0.00 0.00 0.00 0.00 0.00 0.00 0.00 0.00 0.00 0.00 0.00 0.00 0.00 0.00 0.00 0.01 0.04 0.04 0.03 0.01 0.00 0.00 0.00 0.00 0.00 0.00 0.00 0.00 0.00 0.00 0.00 0.00 0.00 0.00 0.00 0.00 0.00 0.00
MSLP
1010.76 1010.75 1011.62 1012.19 1012.32 1011.42 1011.14 1010.62 1009.86 1010.09 1009.81 1009.49 1009.52 1010.04 1011.43 1011.92 1012.60 1014.90 1015.00 1015.38 1015.71 1016.17 1016.29 1016.29 1016.44 1016.58 1016.69 1016.73 1016.76 1016.70 1016.76 1016.91 1016.96 1016.90 1017.05 1017.10 1017.10 1017.13 1017.12 1017.13 1017.12 1017.14 1017.18 1017.19 1017.24 1017.31 1017.42 1017.42 1017.46
1009.32 1010.04 1010.25 1010.55 1010.78 1010.59 1011.16 1010.47 1010.10 1009.62 1009.53 1009.39 1009.91 1010.61 1011.09 1012.81 1013.14 1014.59 1015.27 1015.27 1015.47 1015.92 1016.20 1016.30 1016.46 1016.67 1016.85 1016.93 1016.90 1017.00 1017.01 1017.09 1017.23 1017.20 1017.39 1017.37 1017.49 1017.46 1017.43 1017.44 1017.41 1017.39 1017.38 1017.50 1017.58 1017.57 1017.64 1017.67 1017.73
1009.29 1009.13 1009.98 1010.04 1009.85 1009.54 1010.22 1009.43 1009.56 1009.77 1009.48 1009.33 1010.18 1010.94 1011.87 1013.22 1013.92 1014.38 1014.71 1015.31 1015.61 1015.81 1016.07 1016.24 1016.46 1016.71 1016.90 1017.02 1017.05 1017.16 1017.30 1017.42 1017.45 1017.60 1017.72 1017.67 1017.76 1017.72 1017.69 1017.63 1017.60 1017.66 1017.69 1017.64 1017.72 1017.82 1017.86 1017.86 1017.96
1008.98 1009.61 1009.81 1009.46 1008.82 1008.20 1008.86 1009.59 1009.42 1009.52 1010.06 1010.12 1010.31 1011.64 1012.89 1013.08 1013.51 1014.06 1014.91 1015.17 1015.67 1015.87 1016.07 1016.20 1016.46 1016.70 1016.96 1017.08 1017.13 1017.26 1017.44 1017.61 1017.66 1017.77 1017.85 1017.84 1017.95 1017.93 1017.88 1017.82 1017.82 1017.84 1017.82 1017.81 1017.83 1017.94 1017.93 1018.03 1018.23
1009.47 1009.63 1009.78 1008.89 1008.20 1007.90 1008.14 1008.77 1008.95 1009.45 1010.08 1010.53 1010.83 1012.56 1013.26 1013.75 1013.85 1014.61 1015.08 1015.46 1015.59 1015.96 1016.08 1016.26 1016.46 1016.75 1017.04 1017.19 1017.20 1017.40 1017.62 1017.80 1017.87 1018.03 1018.17 1018.23 1018.20 1018.12 1018.05 1018.01 1018.04 1018.04 1018.05 1018.01 1018.04 1018.09 1018.14 1018.27 1018.42
1009.63 1010.03 1009.86 1009.18 1008.23 1008.20 1007.81 1008.04 1008.68 1009.26 1010.32 1011.05 1011.57 1012.50 1013.83 1014.00 1014.30 1014.78 1015.23 1015.60 1015.72 1016.08 1016.25 1016.32 1016.55 1016.92 1017.22 1017.38 1017.37 1017.48 1017.71 1017.93 1017.94 1018.19 1018.36 1018.44 1018.33 1018.22 1018.22 1018.27 1018.31 1018.26 1018.21 1018.21 1018.24 1018.28 1018.37 1018.52 1018.47
1010.50 1010.59 1009.91 1008.49 1007.96 1007.68 1008.09 1008.40 1008.29 1009.51 1010.31 1011.15 1011.34 1012.66 1014.23 1014.44 1014.53 1015.11 1015.52 1015.86 1016.00 1016.21 1016.41 1016.61 1016.85 1017.16 1017.30 1017.47 1017.60 1017.69 1017.83 1017.95 1018.10 1018.28 1018.55 1018.54 1018.36 1018.29 1018.47 1018.48 1018.47 1018.37 1018.40 1018.36 1018.46 1018.52 1018.61 1018.64 1018.67
1010.84 1010.87 1009.72 1008.23 1007.84 1007.53 1007.81 1008.39 1008.52 1008.92 1010.27 1010.90 1011.33 1012.80 1013.77 1014.14 1014.66 1015.30 1015.91 1016.25 1016.40 1016.46 1016.64 1016.94 1017.14 1017.34 1017.41 1017.62 1017.82 1017.92 1018.06 1018.08 1018.25 1018.44 1018.56 1018.59 1018.34 1018.45 1018.62 1018.65 1018.56 1018.60 1018.45 1018.52 1018.66 1018.71 1018.74 1018.78 1018.82
1011.16 1010.74 1009.33 1007.73 1007.24 1007.40 1007.30 1007.96 1009.23 1009.20 1010.06 1010.76 1010.81 1011.73 1013.02 1013.89 1014.72 1015.58 1016.26 1016.68 1016.77 1016.98 1017.10 1017.18 1017.42 1017.56 1017.56 1017.68 1017.85 1018.08 1018.22 1018.33 1018.42 1018.49 1018.61 1018.60 1018.54 1018.68 1018.75 1018.74 1018.69 1018.57 1018.58 1018.41 1018.65 1018.73 1018.73 1018.73 1018.73
1011.34 1010.48 1008.48 1006.51 1006.45 1006.57 1006.93 1007.46 1008.75 1009.67 1010.47 1011.02 1011.44 1012.29 1013.24 1013.98 1014.81 1015.52 1016.17 1016.72 1016.99 1017.19 1017.31 1017.33 1017.56 1017.70 1017.79 1017.75 1018.12 1018.28 1018.39 1018.51 1018.64 1018.71 1018.77 1018.75 1018.74 1018.82 1018.69 1018.67 1018.57 1018.75 1018.38 1018.65 1018.48 1018.50 1018.59 1018.84 1018.83
1011.11 1009.80 1007.40 1006.12 1005.87 1005.99 1006.59 1007.51 1008.34 1009.44 1010.71 1010.49 1011.04 1012.16 1013.06 1013.76 1014.35 1014.80 1015.53 1015.87 1016.24 1016.79 1017.21 1017.44 1017.57 1017.73 1017.91 1017.94 1018.41 1018.56 1018.59 1018.63 1018.70 1018.81 1018.82 1018.85 1018.81 1018.81 1018.80 1018.91 1018.88 1018.60 1018.66 1018.42 1018.35 1018.20 1018.33 1018.52 1018.78
1010.80 1008.70 1007.27 1006.37 1006.08 1006.23 1006.64 1007.47 1008.78 1008.83 1009.98 1010.46 1011.10 1011.93 1012.72 1013.47 1013.90 1014.46 1015.00 1015.84 1016.38 1016.73 1017.00 1017.44 1017.48 1017.68 1017.97 1018.12 1018.52 1018.66 1018.74 1018.73 1018.74 1018.74 1018.82 1018.97 1018.89 1018.90 1019.00 1018.86 1018.57 1018.34 1018.10 1018.25 1018.14 1018.16 1017.97 1018.09 1018.58
1009.93 1007.24 1006.74 1006.19 1006.31 1006.62 1006.91 1007.57 1008.33 1009.30 1009.99 1010.77 1011.18 1012.16 1012.76 1012.94 1013.50 1013.84 1014.30 1015.23 1015.98 1016.45 1016.89 1017.33 1017.48 1017.66 1017.91 1018.21 1018.50 1018.68 1018.81 1018.78 1018.61 1018.68 1018.75 1018.76 1018.75 1018.88 1019.01 1018.73 1018.64 1018.37 1018.10 1018.18 1018.15 1018.27 1018.08 1017.91 1017.85
1007.85 1007.14 1007.08 1007.05 1006.90 1007.32 1007.75 1008.50 1008.61 1009.95 1010.24 1010.84 1011.19 1011.83 1012.46 1012.81 1013.18 1013.72 1014.39 1015.17 1015.59 1016.12 1016.50 1016.94 1017.31 1017.51 1017.90 1018.15 1018.32 1018.38 1018.51 1018.55 1018.69 1018.73 1018.65 1018.69 1018.85 1018.75 1018.71 1018.72 1018.69 1018.40 1018.17 1017.97 1017.99 1017.87 1017.70 1017.53 1017.59
1007.03 1007.43 1007.76 1007.75 1007.50 1008.00 1008.21 1009.31 1009.43 1009.84 1010.33 1010.95 1011.42 1011.70 1012.00 1012.42 1012.90 1013.16 1013.55 1014.30 1014.83 1015.44 1016.15 1016.53 1016.92 1017.19 1017.48 1017.90 1018.13 1018.26 1018.28 1018.38 1018.59 1018.76 1018.58 1018.54 1018.62 1018.67 1018.63 1018.67 1018.52 1018.20 1018.16 1018.20 1018.03 1017.89 1017.63 1017.58 1017.21
1007.33 1007.96 1008.37 1008.04 1008.09 1008.18 1008.31 1009.57 1009.83 1009.92 1010.22 1010.83 1011.27 1011.59 1011.93 1012.20 1012.44 1012.77 1013.26 1013.98 1014.67 1015.29 1015.86 1016.35 1016.78 1017.16 1017.44 1017.51 1017.79 1017.95 1018.22 1018.30 1018.36 1018.61 1018.59 1018.48 1018.52 1018.60 1018.68 1018.84 1018.49 1018.22 1018.36 1018.21 1018.09 1018.13 1017.97 1017.81 1017.80
1008.03 1008.34 1008.40 1008.15 1008.01 1008.27 1008.76 1009.60 1009.83 1009.96 1010.13 1010.65 1011.11 1011.31 1011.53 1012.00 1012.33 1012.56 1013.06 1013.72 1014.38 1014.96 1015.64 1016.28 1016.58 1017.10 1017.33 1017.45 1017.64 1017.76 1018.19 1018.29 1018.40 1018.56 1018.54 1018.32 1018.35 1018.43 1018.69 1018.72 1018.51 1018.27 1018.53 1018.09 1018.15 1018.20 1018.21 1018.24 1017.96
1007.48 1008.08 1007.89 1007.79 1007.71 1008.26 1008.72 1008.58 1009.01 1009.45 1009.83 1010.08 1010.63 1011.09 1011.41 1011.71 1012.03 1012.42 1012.85 1013.55 1014.21 1014.97 1015.60 1016.02 1016.51 1017.02 1017.32 1017.45 1017.73 1017.80 1018.24 1018.20 1018.32 1018.49 1018.43 1018.33 1018.29 1018.35 1018.61 1018.63 1018.60 1018.59 1018.58 1018.42 1018.42 1018.39 1018.21 1018.01 1017.89
1006.38 1006.84 1006.94 1007.00 1007.02 1007.84 1008.13 1008.19 1008.35 1008.82 1009.54 1009.82 1010.33 1010.64 1011.07 1011.51 1011.79 1012.17 1012.71 1013.36 1014.19 1014.88 1015.54 1016.16 1016.58 1016.98 1017.44 1017.79 1018.08 1018.13 1018.20 1018.30 1018.47 1018.35 1018.33 1018.27 1018.24 1018.30 1018.45 1018.55 1018.56 1018.65 1018.92 1018.44 1018.34 1018.36 1018.23 1018.17 1017.93
1005.61 1006.15 1006.74 1006.70 1006.80 1007.80 1007.89 1008.07 1007.98 1008.20 1008.36 1008.59 1009.30 1010.21 1010.65 1011.20 1011.76 1012.26 1012.62 1013.24 1013.86 1014.62 1015.33 1015.98 1016.40 1016.81 1017.12 1017.41 1017.64 1017.81 1018.04 1018.09 1018.15 1018.14 1018.12 1018.23 1018.19 1018.21 1018.39 1018.39 1018.57 1018.77 1018.89 1018.74 1018.50 1018.48 1018.56 1018.43 1018.09
1006.35 1006.73 1006.88 1006.90 1007.12 1007.53 1007.63 1007.94 1007.93 1007.91 1008.14 1008.75 1009.29 1010.08 1010.62 1011.14 1011.77 1012.32 1012.86 1013.38 1013.88 1014.38 1014.99 1015.50 1015.94 1016.44 1016.89 1017.23 1017.57 1017.87 1018.02 1018.12 1018.13 1018.26 1018.19 1018.03 1018.06 1017.98 1018.12 1018.10 1018.18 1018.47 1018.63 1018.67 1018.53 1018.52 1018.66 1018.65 1018.28
1006.76 1006.80 1007.11 1007.41 1007.99 1008.24 1008.01 1008.86 1008.12 1007.60 1007.84 1008.60 1009.73 1010.67 1011.53 1011.70 1012.07 1012.72 1013.32 1013.81 1013.99 1014.27 1014.51 1015.02 1015.41 1015.93 1016.45 1016.89 1017.36 1017.86 1018.22 1018.37 1018.21 1018.13 1017.94 1017.82 1017.84 1017.77 1017.77 1017.79 1017.81 1017.99 1018.20 1018.46 1018.40 1018.41 1018.48 1018.62 1018.61
1007.07 1006.92 1007.29 1008.07 1009.02 1009.35 1009.09 1009.17 1007.63 1007.45 1008.49 1009.22 1010.38 1011.39 1012.22 1012.60 1013.04 1013.30 1013.00 1013.41 1013.87 1014.10 1014.31 1014.72 1015.23 1015.72 1016.09 1016.44 1016.75 1017.32 1017.83 1018.09 1017.90 1017.95 1017.86 1017.76 1017.51 1017.52 1017.36 1017.40 1017.47 1017.64 1017.68 1018.03 1018.11 1018.12 1018.18 1018.26 1018.39
1006.74 1007.57 1008.54 1009.26 1010.20 1011.20 1009.47 1009.65 1009.16 1008.25 1008.32 1009.87 1010.80 1011.53 1012.45 1012.93 1013.09 1014.00 1014.07 1013.51 1013.72 1014.23 1014.48 1014.72 1014.97 1015.23 1015.68 1016.03 1016.22 1016.47 1016.86 1017.38 1017.80 1017.75 1017.66 1017.48 1017.52 1017.46 1017.14 1017.05 1017.18 1017.17 1017.19 1017.49 1017.65 1017.78 1017.80 1017.90 1018.12
1007.53 1009.43 1010.64 1011.75 1012.31 1011.85 1010.43 1010.05 1009.95 1008.67 1008.93 1009.77 1011.18 1012.12 1012.43 1013.01 1013.20 1012.92 1014.20 1014.62 1014.54 1014.72 1014.85 1015.01 1015.20 1015.52 1015.82 1015.99 1016.24 1016.42 1016.45 1016.51 1016.65 1016.93 1017.01 1016.99 1016.85 1016.97 1016.90 1016.79 1016.96 1017.07 1016.77 1016.79 1016.98 1017.34 1017.46 1017.49 1017.70
1008.54 1009.99 1011.55 1012.63 1013.38 1012.36 1011.08 1011.77 1011.63 1010.59 1010.34 1010.57 1010.99 1012.06 1012.69 1013.11 1013.24 1013.51 1013.59 1014.96 1015.16 1015.06 1015.01 1015.14 1015.27 1015.56 1015.50 1015.72 1015.96 1015.98 1015.99 1016.22 1016.18 1016.03 1015.94 1016.08 1016.14 1016.04 1016.00 1016.03 1016.00 1016.16 1016.29 1016.24 1016.46 1016.89 1017.03 1017.08 1017.10
1008.92 1010.12 1011.08 1012.39 1013.40 1013.57 1013.60 1013.54 1012.20 1011.80 1011.72 1011.84 1012.11 1012.68 1013.30 1013.50 1013.97 1014.03 1014.33 1015.13 1015.42 1015.33 1015.39 1015.21 1015.50 1015.86 1015.39 1015.48 1015.70 1015.68 1015.67 1015.67 1015.55 1015.35 1015.29 1015.31 1015.22 1015.34 1015.37 1015.37 1015.54 1015.64 1015.65 1015.76 1016.10 1016.31 1016.45 1016.58 1016.66
1008.87 1010.00 1011.59 1013.15 1014.41 1015.14 1015.21 1014.60 1014.76 1014.36 1013.80 1013.55 1013.64 1013.83 1013.97 1013.83 1013.84 1013.94 1014.11 1014.58 1014.95 1015.30 1015.96 1016.09 1015.88 1015.77 1015.55 1015.50 1015.62 1015.64 1014.93 1014.72 1014.89 1015.12 1014.89 1014.52 1014.45 1014.49 1014.62 1014.82 1014.96 1015.05 1015.18 1015.34 1015.54 1015.70 1015.81 1016.02 1016.03
1009.83 1010.81 1012.29 1013.82 1014.90 1015.58 1016.31 1016.91 1016.17 1015.62 1014.94 1014.62 1014.62 1014.57 1014.62 1014.59 1015.08 1015.07 1015.16 1015.35 1015.45 1015.96 1016.27 1016.23 1015.88 1015.77 1015.74 1015.62 1015.45 1014.86 1013.95 1013.50 1013.81 1014.13 1014.11 1014.06 1013.83 1013.75 1013.84 1013.93 1014.03 1014.27 1014.45 1014.67 1014.91 1014.96 1015.09 1015.37 1015.38
1010.32 1011.36 1012.60 1014.52 1015.89 1016.43 1016.76 1017.72 1016.97 1016.23 1015.86 1015.62 1015.87 1015.95 1016.08 1016.09 1016.05 1016.03 1016.14 1016.29 1016.45 1016.46 1016.24 1015.86 1015.77 1015.73 1015.60 1015.44 1015.15 1014.44 1013.67 1012.67 1012.68 1012.90 1012.93 1013.13 1013.14 1012.97 1012.98 1013.07 1013.14 1013.20 1013.39 1013.65 1013.95 1014.12 1014.24 1014.57 1014.69
Thickness
5798 5794 5785 5771 5749 5751 5742 5755 5774 5761 5768 5788 5796 5787 5769 5775 5766 5734 5767 5769 5770 5767 5766 5767 5767 5768 5768 5769 5771 5772 5772 5771 5770 5770 5769 5769 5769 5770 5771 5770 5770 5769 5768 5767 5766 5764 5763 5761 5760
5813 5803 5797 5778 5754 5739 5736 5761 5761 5777 5784 5793 5791 5782 5778 5761 5777 5765 5767 5774 5775 5771 5769 5770 5769 5768 5769 5771 5771 5772 5772 5772 5769 5770 5768 5769 5768 5769 5770 5769 5769 5768 5769 5767 5764 5764 5762 5761 5759
5814 5814 5788 5773 5760 5747 5743 5773 5774 5783 5793 5793 5784 5788 5778 5764 5771 5772 5778 5777 5776 5775 5774 5773 5772 5771 5771 5771 5772 5771 5771 5770 5770 5769 5768 5769 5768 5769 5769 5770 5769 5768 5767 5768 5766 5764 5762 5761 5759
5811 5801 5794 5771 5768 5783 5777 5774 5785 5788 5789 5794 5791 5770 5778 5785 5779 5784 5781 5779 5778 5777 5776 5775 5773 5773 5772 5773 5774 5772 5771 5770 5771 5770 5769 5770 5770 5770 5770 5771 5770 5770 5770 5769 5768 5766 5765 5763 5760
5810 5797 5774 5776 5782 5792 5793 5791 5796 5785 5785 5785 5790 5767 5768 5781 5785 5783 5782 5781 5780 5778 5778 5776 5774 5773 5773 5774 5775 5774 5772 5771 5772 5771 5769 5770 5770 5771 5772 5771 5770 5770 5770 5770 5769 5767 5766 5765 5764
5795 5792 5764 5760 5777 5789 5798 5803 5797 5793 5789 5786 5778 5774 5766 5783 5782 5783 5783 5780 5780 5779 5777 5777 5776 5774 5774 5774 5774 5774 5772 5772 5775 5773 5772 5771 5772 5772 5772 5772 5771 5771 5772 5772 5770 5769 5768 5767 5767
5788 5779 5774 5783 5787 5792 5793 5806 5798 5790 5788 5784 5793 5768 5771 5777 5785 5784 5783 5781 5779 5778 5777 5776 5775 5773 5772 5772 5772 5774 5774 5774 5775 5774 5773 5772 5773 5775 5773 5773 5772 5773 5773 5774 5772 5770 5770 5769 5768
5797 5785 5774 5789 5779 5782 5800 5803 5812 5803 5789 5805 5802 5768 5767 5784 5789 5785 5782 5779 5778 5777 5776 5775 5775 5773 5772 5771 5771 5773 5773 5775 5775 5775 5774 5773 5776 5776 5774 5774 5775 5774 5776 5776 5773 5772 5771 5770 5770
5803 5781 5776 5789 5789 5789 5811 5800 5809 5817 5800 5802 5808 5797 5794 5796 5792 5784 5778 5776 5775 5776 5777 5775 5773 5772 5771 5773 5773 5773 5773 5774 5775 5777 5776 5777 5778 5778 5775 5777 5778 5778 5778 5779 5776 5775 5774 5773 5774
5789 5775 5790 5821 5817 5807 5814 5810 5804 5799 5794 5793 5796 5801 5797 5794 5786 5779 5774 5772 5773 5773 5776 5776 5775 5774 5771 5772 5773 5774 5775 5777 5778 5778 5778 5778 5779 5780 5780 5780 5781 5779 5783 5779 5780 5780 5778 5776 5777
5788 5782 5817 5829 5832 5830 5821 5814 5816 5798 5784 5797 5794 5795 5797 5793 5790 5786 5782 5783 5782 5780 5779 5780 5778 5778 5777 5776 5776 5777 5778 5779 5780 5780 5779 5780 5781 5783 5784 5783 5783 5785 5784 5785 5784 5785 5783 5782 5781
5779 5809 5823 5829 5836 5830 5821 5823 5802 5805 5797 5808 5807 5803 5799 5795 5793 5789 5788 5784 5783 5784 5784 5782 5782 5781 5781 5782 5780 5780 5781 5782 5782 5783 5782 5783 5784 5785 5785 5786 5788 5791 5792 5790 5790 5790 5790 5789 5785
5790 5828 5835 5839 5837 5830 5831 5818 5814 5807 5813 5811 5810 5802 5797 5800 5799 5801 5800 5796 5789 5786 5788 5786 5785 5784 5783 5783 5781 5782 5783 5784 5786 5785 5785 5786 5785 5787 5787 5788 5789 5791 5793 5793 5793 5791 5793 5793 5793
5823 5833 5830 5831 5831 5829 5816 5813 5815 5808 5815 5809 5807 5803 5801 5801 5802 5803 5799 5793 5792 5792 5792 5793 5790 5787 5785 5783 5784 5785 5786 5787 5787 5787 5788 5787 5787 5790 5790 5790 5791 5794 5795 5797 5797 5797 5799 5800 5798
5838 5817 5819 5822 5826 5819 5823 5798 5798 5813 5813 5804 5803 5804 5805 5806 5806 5805 5808 5802 5802 5800 5797 5795 5793 5792 5790 5787 5786 5787 5788 5789 5790 5789 5791 5790 5791 5790 5790 5791 5796 5797 5798 5798 5799 5800 5803 5805 5807
5817 5808 5788 5815 5820 5823 5818 5781 5804 5816 5811 5803 5804 5807 5808 5809 5809 5812 5812 5808 5805 5801 5798 5798 5797 5795 5793 5792 5791 5791 5790 5792 5792 5792 5793 5792 5793 5793 5792 5793 5797 5799 5798 5799 5800 5801 5802 5804 5805
5801 5779 5788 5805 5825 5819 5811 5788 5810 5819 5815 5806 5807 5810 5811 5808 5810 5812 5813 5809 5806 5805 5800 5797 5797 5796 5797 5795 5793 5794 5791 5793 5792 5793 5794 5796 5795 5795 5794 5795 5798 5800 5799 5802 5802 5802 5802 5801 5804
5786 5784 5799 5796 5818 5817 5805 5808 5818 5821 5817 5813 5812 5813 5811 5809 5811 5814 5816 5813 5809 5805 5801 5800 5798 5795 5796 5796 5795 5795 5791 5792 5794 5794 5795 5796 5797 5797 5796 5796 5797 5799 5799 5801 5801 5801 5804 5806 5806
5817 5807 5806 5818 5828 5813 5810 5812 5819 5823 5817 5814 5813 5814 5813 5811 5816 5816 5816 5814 5808 5804 5800 5797 5796 5794 5792 5790 5790 5791 5790 5790 5792 5794 5795 5796 5798 5797 5798 5798 5798 5799 5798 5803 5804 5803 5804 5805 5808
5821 5806 5804 5820 5828 5812 5807 5808 5823 5825 5826 5827 5824 5818 5817 5816 5814 5814 5814 5813 5812 5807 5803 5798 5796 5795 5796 5793 5792 5794 5793 5794 5793 5794 5796 5797 5798 5798 5798 5799 5799 5798 5798 5800 5803 5803 5801 5804 5808
5797 5794 5796 5802 5820 5818 5814 5800 5812 5826 5830 5828 5829 5824 5820 5817 5812 5812 5810 5807 5808 5807 5803 5800 5799 5797 5796 5795 5792 5790 5792 5792 5792 5790 5793 5797 5798 5799 5798 5800 5801 5800 5799 5800 5802 5803 5801 5799 5806
5782 5811 5809 5801 5791 5771 5810 5754 5790 5818 5820 5822 5816 5809 5808 5812 5814 5809 5807 5802 5803 5805 5808 5805 5804 5801 5799 5797 5793 5788 5783 5781 5788 5790 5794 5797 5798 5799 5800 5802 5803 5802 5801 5801 5803 5805 5804 5802 5797
5796 5819 5811 5805 5781 5781 5785 5765 5793 5819 5805 5801 5801 5799 5798 5802 5801 5799 5809 5811 5808 5811 5810 5806 5802 5799 5797 5797 5796 5791 5786 5785 5789 5789 5790 5794 5797 5799 5800 5802 5803 5804 5804 5803 5803 5804 5804 5804 5801
5816 5802 5786 5777 5763 5738 5770 5769 5766 5797 5799 5791 5796 5798 5793 5797 5797 5788 5794 5808 5809 5810 5810 5808 5804 5800 5797 5796 5795 5795 5792 5788 5785 5787 5788 5792 5795 5797 5801 5802 5802 5803 5804 5803 5803 5803 5804 5803 5802
5790 5755 5723 5738 5726 5729 5769 5768 5769 5803 5805 5800 5789 5786 5792 5792 5790 5795 5789 5789 5798 5803 5801 5803 5802 5799 5795 5792 5791 5792 5791 5792 5791 5790 5792 5794 5797 5797 5800 5802 5802 5803 5805 5805 5804 5803 5803 5803 5801
5780 5756 5719 5728 5719 5736 5769 5744 5757 5786 5795 5798 5798 5791 5787 5785 5795 5790 5799 5786 5790 5799 5798 5797 5797 5792 5796 5793 5790 5792 5792 5791 5791 5793 5797 5797 5800 5804 5806 5805 5806 5806 5807 5807 5806 5804 5803 5803 5802
5772 5748 5766 5742 5739 5724 5731 5741 5765 5771 5774 5778 5781 5778 5774 5777 5774 5782 5787 5781 5782 5789 5791 5792 5787 5785 5790 5792 5789 5791 5793 5793 5792 5795 5796 5799 5802 5804 5807 5808 5807 5807 5807 5808 5807 5805 5804 5803 5802
5775 5775 5737 5719 5715 5704 5715 5722 5719 5735 5745 5759 5761 5761 5763 5771 5775 5777 5781 5782 5781 5782 5780 5781 5782 5781 5782 5785 5784 5785 5792 5795 5793 5791 5794 5798 5801 5803 5806 5807 5808 5808 5807 5807 5806 5806 5804 5802 5802
5753 5745 5739 5726 5712 5693 5683 5690 5724 5724 5734 5739 5748 5753 5754 5754 5753 5756 5759 5762 5764 5767 5768 5770 5774 5773 5773 5776 5778 5783 5792 5798 5797 5794 5795 5797 5801 5801 5802 5804 5807 5807 5807 5806 5804 5805 5804 5801 5800
5762 5752 5727 5700 5712 5691 5689 5679 5721 5725 5731 5736 5734 5738 5739 5741 5743 5746 5745 5745 5745 5745 5749 5754 5759 5764 5766 5769 5773 5779 5786 5795 5797 5796 5797 5797 5799 5802 5803 5802 5804 5806 5807 5806 5804 5803 5803 5800 5798